Theta_e
306 307 307 307 306 306 305 305 305 305 304 304 303 303 303 303 302 302 300 298 296 294 293 293 292 292 292 293 293 294 294 294 293 293 292 293 294 294 295 295 295 295 295 294 294 293 293 292 292 292 291 290 290 290 290 290 290 290 290 290 290 290 290 290 291 291 291 291 292 292 292 292 293 293 293 293 294 295 297 300 302 304 306 307 307 307
307 307 307 306 306 306 305 305 304 304 304 303 303 303 302 303 302 302 300 298 296 294 293 293 293 293 293 293 294 294 294 294 293 293 293 293 293 293 294 294 295 295 295 295 294 294 293 293 292 292 291 291 290 290 290 290 290 290 290 290 289 289 289 289 290 290 290 290 290 290 290 291 291 291 292 292 293 294 296 298 300 302 304 305 306 306
307 307 307 306 306 306 305 305 304 304 304 303 303 302 302 302 302 301 300 298 296 294 294 294 294 294 293 294 294 294 294 294 293 293 293 293 293 293 293 293 294 294 295 295 295 295 294 294 293 292 291 291 290 290 290 290 290 289 289 289 289 289 289 289 289 289 289 289 289 290 290 290 290 290 291 291 292 293 294 296 298 300 302 303 304 305
307 307 306 306 306 305 305 304 304 304 303 303 302 302 301 301 301 300 299 297 296 295 295 295 295 294 294 294 294 294 294 294 293 293 293 293 293 293 293 293 293 294 294 295 295 295 295 294 293 292 291 291 290 290 290 290 290 289 289 289 289 289 289 289 289 289 289 289 289 289 289 290 290 290 290 290 291 291 293 294 296 298 300 301 302 303
306 306 306 306 305 305 304 304 304 303 303 302 302 301 301 300 300 299 298 297 296 296 296 296 296 295 295 294 294 294 294 294 293 293 293 293 293 293 293 293 293 293 294 295 295 295 295 294 294 293 292 291 291 290 290 290 290 289 289 289 289 289 288 288 289 289 289 289 289 289 289 289 289 289 290 290 290 291 291 293 294 296 298 299 300 301
305 305 305 305 305 304 304 303 303 302 302 302 301 301 300 300 299 299 297 296 296 296 296 296 296 296 295 295 294 294 294 294 293 293 293 293 293 293 293 293 293 293 293 294 295 295 295 295 294 293 292 291 291 291 290 290 289 289 289 289 289 289 288 288 288 288 288 289 289 289 289 289 289 289 289 289 290 290 291 291 292 294 296 297 298 299
304 304 304 304 304 304 303 303 302 302 301 301 301 301 300 300 299 299 298 296 295 295 295 296 296 296 296 295 295 294 294 294 294 293 293 293 293 293 293 293 293 293 293 293 294 295 295 294 294 293 292 292 291 291 291 290 289 289 289 289 289 289 288 288 288 288 288 288 289 289 289 289 289 289 289 289 289 290 290 291 291 292 294 295 296 297
303 304 304 304 304 303 303 302 302 301 301 301 301 301 300 300 299 298 297 296 294 294 294 295 296 296 296 295 295 294 294 294 294 293 293 293 293 293 293 293 293 293 293 293 293 294 295 294 294 293 292 292 291 291 291 290 289 289 289 289 289 289 288 288 288 288 288 288 288 289 289 289 289 289 289 289 289 289 290 290 290 291 292 293 294 296
302 303 303 304 303 303 302 302 301 301 300 300 300 300 300 299 298 297 296 295 294 294 294 295 296 296 295 295 295 294 294 294 294 294 294 293 293 293 292 292 292 292 292 292 293 293 294 294 294 293 292 292 292 291 291 290 289 289 289 289 289 288 288 288 288 288 288 288 288 288 288 289 289 289 289 289 289 289 289 290 290 290 291 292 293 294
302 302 303 302 302 302 301 301 301 300 300 300 300 300 299 298 297 296 295 295 294 294 294 294 294 294 294 294 294 294 294 294 294 294 294 293 293 293 292 292 292 292 292 292 292 293 294 294 293 293 292 292 292 291 291 290 289 289 289 289 289 289 288 288 288 288 288 288 288 288 288 288 289 289 289 289 289 289 289 289 290 290 290 291 291 292
301 301 301 301 301 301 301 301 301 301 300 300 299 299 298 297 296 295 295 295 294 293 293 293 293 293 294 294 294 294 294 294 294 294 294 293 293 292 292 292 291 291 291 291 292 292 293 293 293 292 292 292 292 291 291 290 289 289 289 289 289 289 288 288 288 288 288 288 288 288 288 288 288 288 289 289 289 289 289 289 289 290 290 290 290 291
300 300 301 301 301 300 300 300 300 300 300 299 299 298 296 296 295 295 295 294 293 293 292 292 292 292 293 293 293 293 293 294 294 294 294 293 293 293 292 291 290 290 290 290 291 292 292 292 292 292 292 292 291 291 290 290 289 289 289 289 289 289 288 288 288 288 288 288 288 288 289 288 288 288 288 288 289 289 289 289 289 289 289 290 290 290
299 299 300 299 299 298 297 298 298 298 297 297 296 295 294 295 294 294 293 293 293 292 292 291 291 291 291 292 292 292 293 293 294 294 294 294 294 293 292 291 289 289 289 290 291 292 292 292 292 292 292 291 291 291 290 290 289 289 288 289 289 289 288 288 288 288 288 288 288 288 289 288 288 288 288 288 288 289 289 289 289 289 289 290 290 290
296 298 298 297 295 294 294 295 294 294 293 293 293 293 293 293 293 293 293 293 293 292 292 291 291 291 291 291 292 292 293 293 293 293 293 293 292 291 290 289 289 289 289 290 291 291 292 292 292 291 291 291 291 290 290 289 289 289 289 289 289 289 289 288 288 288 288 288 288 289 289 289 288 288 288 288 288 288 288 289 289 289 289 289 290 290
295 296 297 295 293 292 292 292 292 291 291 291 291 292 292 292 292 292 292 292 292 292 291 291 291 291 292 292 292 292 293 292 292 291 290 290 289 289 289 289 289 289 289 290 291 291 291 291 291 291 291 290 290 290 289 289 289 289 289 289 289 289 289 288 288 288 288 288 288 288 289 289 289 288 288 288 288 288 288 288 288 289 289 289 289 289
294 295 296 294 293 291 291 291 291 291 291 290 290 290 291 291 291 291 291 291 291 291 291 291 291 291 292 292 292 291 291 290 290 289 289 289 289 289 290 290 290 290 290 290 291 291 291 291 290 290 290 290 289 289 289 289 289 289 290 290 290 290 289 288 288 288 288 288 288 288 289 289 289 288 288 288 288 288 288 288 289 289 289 289 289 289
294 294 294 293 292 291 291 291 291 291 291 291 291 290 290 290 290 290 290 290 290 290 290 290 290 290 291 291 291 290 290 290 289 289 289 290 290 290 290 290 290 290 290 290 290 290 290 289 289 289 289 289 289 289 289 288 289 289 290 290 290 290 289 289 288 288 288 288 288 288 288 288 288 288 288 288 288 288 288 289 289 289 289 289 289 289
293 293 293 292 292 291 291 292 292 292 291 291 291 291 291 291 290 290 290 290 290 289 289 289 289 289 290 290 290 289 290 289 289 289 289 290 290 291 290 290 290 290 289 289 289 289 289 289 289 289 289 288 288 288 288 288 288 288 289 289 290 290 289 289 288 288 288 289 289 289 289 289 289 288 288 288 288 288 288 289 289 289 289 289 289 289
293 293 292 292 292 291 291 291 291 292 291 291 291 291 291 290 290 290 290 290 290 290 290 290 289 289 289 290 290 290 290 289 289 289 290 290 290 291 290 290 290 290 289 289 289 288 288 288 288 288 288 288 288 288 288 288 287 287 288 289 289 290 289 288 288 288 288 289 289 289 290 289 289 289 288 288 288 288 288 289 289 289 289 289 289 288
293 293 292 292 292 291 291 291 291 291 291 290 290 290 290 289 289 289 289 289 289 289 290 290 290 290 290 290 290 290 289 289 289 290 290 290 291 290 290 290 290 289 289 289 289 289 289 289 289 289 289 289 288 288 288 288 287 287 287 288 289 289 289 288 288 288 289 289 289 289 289 289 289 289 289 289 288 288 288 289 289 289 289 289 289 289
292 292 292 292 291 291 291 290 290 290 290 290 290 289 289 289 288 288 288 288 288 289 289 289 289 289 290 290 289 289 289 289 290 290 290 290 291 290 290 290 289 289 289 289 289 289 289 289 289 289 289 289 289 289 289 288 288 288 288 288 288 288 288 288 288 289 289 289 289 289 289 289 289 289 289 289 289 289 289 289 289 288 288 288 288 288
291 291 291 291 291 291 290 290 290 290 290 290 289 289 288 288 288 288 288 288 288 288 288 288 288 289 289 289 289 289 289 290 290 290 290 290 291 291 290 289 289 289 289 289 289 289 289 289 289 289 289 289 289 289 289 289 288 288 288 288 288 288 288 288 288 289 289 289 289 289 288 288 288 289 289 289 289 289 289 289 289 289 289 288 288 288
290 290 290 290 290 290 290 290 290 290 290 289 289 289 288 288 288 288 288 288 288 288 288 288 288 288 288 288 289 289 289 290 290 290 290 290 291 291 290 289 289 289 289 289 289 289 289 289 289 289 289 289 289 289 289 288 288 288 288 288 288 288 287 288 288 288 289 289 288 288 288 288 288 288 288 288 289 289 290 290 289 289 289 289 288 288
289 290 290 290 290 290 290 290 290 290 290 289 289 289 289 288 288 288 288 288 288 288 288 288 288 289 288 288 289 289 289 289 289 289 289 290 290 290 289 289 288 288 288 288 288 288 289 289 289 289 289 289 289 289 288 288 288 288 289 288 288 287 287 287 287 288 288 288 288 288 288 287 287 287 288 288 289 289 290 290 290 290 289 289 289 289
289 290 290 290 290 290 290 290 290 290 290 289 289 289 289 288 288 288 287 287 288 288 288 288 288 288 288 288 289 289 288 288 288 288 288 289 289 289 288 288 287 287 287 287 288 288 288 289 289 289 289 289 289 289 288 288 288 289 289 288 287 287 287 287 287 287 287 288 288 288 288 287 287 287 287 287 288 289 290 290 290 290 290 289 289 289
290 290 290 290 290 290 290 290 290 289 289 289 289 288 288 288 287 287 287 287 287 287 288 288 288 288 287 288 288 288 288 287 287 287 287 287 288 288 287 287 286 286 286 286 287 288 287 288 288 289 288 288 288 288 288 288 289 289 288 288 287 287 287 287 287 287 287 288 288 288 287 287 287 287 287 287 288 288 289 289 289 290 290 290 290 289
289 290 289 289 289 289 289 289 289 289 289 288 288 288 288 287 287 287 287 287 287 287 287 287 287 287 287 287 287 287 287 287 287 287 287 286 286 286 286 286 285 285 285 285 286 287 287 287 288 288 288 288 288 288 288 288 289 289 288 288 287 287 288 288 287 287 287 287 287 287 287 287 287 287 286 287 287 288 288 288 289 289 289 289 289 289
288 288 288 288 288 288 288 288 288 288 288 288 287 287 287 287 287 287 286 286 286 286 286 286 286 286 286 286 286 286 286 286 286 286 286 286 286 285 285 285 285 284 284 284 285 286 286 286 287 287 287 288 288 288 288 288 288 288 288 288 288 288 288 287 287 287 287 287 287 287 287 287 287 286 286 286 287 287 288 288 288 288 289 289 289 289
288 288 288 288 288 288 288 287 288 288 288 287 287 287 287 287 286 286 286 286 286 285 285 285 285 285 285 285 285 285 286 286 286 286 286 285 285 285 284 284 284 284 284 284 284 285 286 286 286 287 287 287 288 288 288 288 288 289 288 288 288 287 287 287 287 286 287 287 287 287 287 286 286 286 286 286 286 287 287 288 288 288 288 288 288 288
288 288 287 287 287 287 287 287 287 287 287 287 286 286 286 286 286 285 285 285 285 285 285 284 284 284 284 284 285 285 284 285 285 285 285 284 284 284 284 284 283 283 283 283 283 284 284 285 285 286 287 287 288 288 288 288 288 288 287 287 287 286 286 286 286 286 286 286 286 286 286 286 286 286 286 286 286 286 287 287 287 288 288 288 288 288
288 288 287 287 287 287 287 287 287 286 286 286 286 286 286 285 285 285 285 284 284 284 284 284 284 284 283 284 284 283 283 284 285 284 284 284 283 283 283 283 282 282 282 282 282 283 283 283 284 285 286 286 286 286 286 286 286 286 286 286 286 285 285 285 286 286 286 286 286 286 286 286 286 286 286 286 286 286 287 287 287 287 287 288 288 288
288 287 287 287 287 287 286 286 286 286 285 285 285 285 285 285 285 284 284 284 284 284 284 283 283 283 283 283 283 283 283 284 284 283 283 283 283 283 282 282 281 281 281 281 281 281 282 282 283 283 283 283 283 284 284 284 284 284 285 285 285 285 285 285 285 285 285 285 286 286 286 286 286 286 285 286 286 286 286 287 287 287 287 287 288 288
287 287 287 287 286 286 286 285 285 285 285 285 284 284 284 284 284 284 284 284 284 283 283 283 283 283 283 283 283 283 283 283 283 283 283 283 282 282 282 281 281 281 281 281 281 281 281 281 281 281 281 282 282 282 283 283 284 284 284 284 284 284 284 284 284 284 285 285 285 285 286 286 285 285 285 285 285 286 286 286 286 287 287 288 288 288
287 287 287 286 286 286 285 285 285 285 284 284 284 284 284 284 284 284 284 284 284 283 283 283 283 283 283 282 282 282 282 283 283 283 283 282 282 282 281 281 281 281 281 281 281 281 281 281 281 281 281 282 282 282 283 283 283 283 283 283 283 283 283 284 284 284 284 284 285 285 285 285 285 285 285 285 285 285 286 286 286 287 287 287 288 288
287 286 286 286 285 285 285 285 285 284 284 284 284 284 284 284 284 284 284 284 284 283 283 283 283 283 283 282 282 282 282 282 283 283 282 282 282 282 281 282 282 281 281 281 281 281 281 281 281 281 282 282 282 282 282 283 283 283 283 283 283 283 283 283 283 283 284 284 284 284 285 285 285 285 285 285 285 285 286 286 286 286 286 287 287 287
286 286 285 285 285 285 285 285 285 284 284 284 284 284 284 284 284 284 284 283 283 283 283 283 283 283 282 282 282 282 282 282 282 282 282 282 282 282 282 282 282 281 281 282 282 282 282 281 282 282 282 282 282 282 282 282 282 282 282 282 282 282 282 283 283 283 283 283 283 284 284 284 285 285 285 285 285 285 285 285 286 286 286 286 286 286
286 285 285 285 285 285 284 284 284 284 284 284 284 284 284 284 284 284 283 283 283 283 283 283 283 283 282 282 282 282 282 282 281 281 281 281 282 282 281 281 281 281 281 282 282 282 282 282 282 282 282 282 282 282 282 282 282 282 282 282 282 282 282 282 283 283 283 283 283 283 284 284 284 284 284 284 284 284 285 285 285 286 286 286 286 286
285 285 285 285 285 285 285 284 284 284 284 284 284 284 284 284 283 283 283 283 283 282 282 282 282 282 282 281 281 281 281 281 281 281 281 281 281 281 281 281 282 281 281 281 282 282 282 282 282 282 282 281 281 282 282 282 281 281 281 281 282 282 282 282 282 282 282 283 283 283 283 284 284 284 284 284 284 284 284 285 285 286 286 286 286 286
285 285 285 285 285 285 285 285 285 285 284 284 284 284 284 283 283 283 283 282 282 282 282 282 281 281 281 281 280 280 281 281 281 281 281 281 281 281 281 282 282 282 282 282 282 282 282 282 282 282 282 282 282 282 281 281 281 281 281 282 282 282 282 282 282 282 282 282 283 283 283 283 283 283 284 284 284 284 284 285 285 285 286 286 286 286
285 285 285 285 285 285 285 285 285 285 284 284 284 284 284 283 283 282 282 282 282 281 281 281 281 280 280 280 280 280 281 281 281 281 281 281 281 282 282 282 282 282 282 282 282 282 282 282 282 282 282 282 282 282 282 282 281 282 282 282 282 282 282 282 282 282 282 282 283 283 283 283 283 283 283 284 284 284 284 284 285 285 285 285 285 285
285 285 285 285 285 285 285 285 284 284 284 284 284 284 284 283 283 282 282 282 282 281 281 281 280 280 280 280 280 280 280 281 281 281 281 281 281 282 282 282 282 282 282 281 281 281 281 281 282 282 282 282 282 282 282 282 282 282 282 282 282 282 282 282 282 282 282 282 282 283 283 283 283 283 283 284 284 284 284 284 284 284 285 285 285 285
285 285 285 285 284 284 284 284 284 284 285 285 285 285 284 283 283 282 282 282 282 281 281 280 280 280 280 280 280 280 280 280 281 281 281 281 281 282 282 282 281 281 281 281 281 281 281 281 281 281 282 282 282 282 282 281 282 282 282 282 282 282 282 282 282 282 282 282 282 283 283 283 283 283 284 284 284 284 284 284 284 284 284 284 285 285
285 284 284 284 284 284 283 283 284 284 285 285 284 284 284 283 283 283 282 282 281 281 280 280 280 280 279 279 280 280 280 280 281 281 281 281 281 281 281 281 281 281 281 281 280 280 280 281 281 281 281 281 282 282 282 282 282 281 282 282 282 282 282 282 282 282 282 282 282 283 283 283 283 284 284 284 284 284 284 284 284 284 284 284 284 284
284 284 284 283 283 283 283 283 283 283 283 283 283 283 283 283 282 282 282 282 281 281 280 280 280 279 279 279 280 280 280 280 281 281 281 281 281 281 281 281 281 281 281 280 280 280 280 280 281 281 281 281 281 282 282 282 282 281 281 282 282 282 282 282 282 282 282 282 282 283 283 283 283 283 284 284 284 284 284 284 284 284 284 284 284 284
284 283 283 283 283 283 283 283 282 282 282 282 282 282 282 282 282 281 281 281 281 280 280 280 279 279 280 280 280 280 280 281 281 281 281 281 281 281 281 280 280 280 280 280 280 280 280 280 280 281 281 281 281 282 282 282 282 282 282 282 282 282 282 282 282 282 282 282 282 283 283 283 283 283 283 284 284 284 284 284 284 284 284 284 284 284
283 283 283 283 283 283 283 282 282 282 281 281 281 281 281 281 281 281 281 280 280 280 280 280 279 280 280 280 280 281 281 281 281 281 281 280 280 280 280 280 280 279 280 280 280 280 280 280 280 281 281 281 281 281 281 282 282 282 282 282 282 282 282 282 282 282 282 282 282 283 283 283 283 283 283 283 284 284 284 284 284 284 284 284 284 284
283 283 283 283 283 283 282 282 282 281 281 281 281 281 281 280 280 280 280 280 280 280 279 279 279 280 280 280 281 281 281 281 280 280 279 279 279 279 279 279 279 279 279 280 280 280 280 280 281 281 281 281 281 281 281 281 281 282 282 281 281 282 282 282 282 282 282 282 283 283 283 283 283 283 283 283 284 284 284 284 284 284 284 284 284 284
284 283 283 283 283 282 282 282 281 281 281 281 280 280 280 280 280 280 279 279 279 279 279 279 280 280 280 281 281 280 280 279 279 279 278 278 278 278 278 279 279 279 279 279 279 280 280 280 281 281 281 281 281 281 281 281 281 282 281 281 282 282 282 282 282 282 283 283 283 283 283 283 283 283 284 284 284 284 284 284 284 284 284 284 284 283
283 283 283 282 282 282 281 281 281 281 280 280 280 280 279 279 279 279 279 279 279 279 279 280 280 280 280 280 279 279 278 278 278 278 278 278 278 278 278 279 279 279 279 279 279 280 280 280 281 281 281 281 281 281 281 281 282 282 282 282 282 282 282 282 282 282 283 283 283 283 283 284 284 284 284 284 284 284 284 284 284 284 284 283 283 283
283 283 282 282 282 281 281 281 280 280 280 280 279 279 279 279 279 279 279 279 279 279 279 280 280 279 279 278 278 278 278 278 278 278 278 278 278 278 278 278 278 278 278 279 279 280 280 280 281 281 281 281 282 282 282 282 282 282 282 282 282 282 282 282 282 283 283 283 283 283 284 284 284 284 284 284 284 284 284 284 283 283 283 283 283 283
283 282 282 282 281 281 281 280 280 280 279 279 279 279 279 279 278 279 279 279 279 279 279 279 279 278 278 278 278 277 277 278 278 278 278 278 278 278 278 278 278 278 278 278 279 279 279 280 280 281 281 281 281 282 282 282 282 282 282 282 282 282 283 283 283 283 283 283 284 284 284 284 284 284 284 284 284 283 283 283 283 283 283 283 283 283
Wind_Speed
10 9 9 7 4 3 2 2 2 3 4 4 5 5 5 5 5 5 5 5 6 5 5 5 4 4 4 3 3 3 4 5 5 6 6 5 4 4 4 5 6 6 7 7 8 8 9 9 10 10 11 12 12 13 13 13 13 12 12 12 12 12 12 12 13 13 13 14 14 14 14 14 14 14 14 13 13 14 14 14 14 15 16 16 17 17
12 11 10 7 5 4 3 2 2 2 3 4 5 5 5 5 5 5 6 6 6 6 5 4 4 4 3 3 3 3 4 4 5 5 5 5 5 4 4 4 5 6 7 7 8 9 9 10 10 11 12 12 13 13 13 13 14 13 13 13 13 13 13 13 13 13 13 14 14 14 14 14 14 14 13 13 13 13 13 14 14 15 16 16 16 16
13 12 10 8 6 4 3 2 2 2 3 4 4 5 5 5 5 5 6 6 6 6 5 5 4 4 3 3 3 3 3 4 5 5 5 5 5 5 5 5 5 5 6 7 8 9 9 10 10 11 12 13 13 13 14 14 14 14 14 14 14 14 14 14 14 14 14 14 14 14 14 14 14 14 13 13 13 13 13 13 14 15 15 16 16 16
12 11 9 7 5 4 2 1 1 2 3 4 4 5 5 5 4 4 5 6 7 6 6 5 4 4 3 3 3 3 4 4 5 5 5 5 5 5 5 5 5 5 6 7 8 9 10 10 11 12 13 13 14 14 14 14 14 14 14 14 14 14 14 14 14 14 14 14 14 14 14 14 14 13 13 13 12 12 12 12 13 14 14 15 15 16
8 8 7 6 4 3 2 1 2 3 4 4 4 4 4 4 4 4 4 5 6 7 6 6 5 4 4 3 3 4 4 4 5 5 5 5 5 5 5 6 6 6 6 6 7 9 10 10 11 12 13 14 14 14 14 14 15 15 15 14 14 14 14 14 14 14 14 14 14 14 14 14 14 13 13 13 12 12 11 11 12 12 13 14 15 15
4 4 4 4 3 2 3 3 4 4 5 5 5 4 4 4 4 4 4 5 6 7 7 7 6 5 4 4 4 4 4 5 5 5 5 6 6 6 6 6 6 6 6 6 7 8 10 11 11 12 13 14 14 14 14 15 15 15 15 15 15 14 14 14 14 14 14 14 14 14 14 14 13 13 13 12 12 11 11 11 11 11 12 13 13 14
2 2 2 2 2 3 4 4 4 5 5 5 5 5 5 5 5 5 5 5 6 7 7 7 6 5 4 4 4 4 5 5 5 5 6 6 6 6 6 6 6 7 7 7 7 8 9 11 12 12 13 14 14 14 14 15 15 16 16 15 15 15 15 14 14 14 14 13 13 13 13 13 13 13 13 13 12 12 11 11 11 10 11 11 12 13
0 1 1 1 3 4 4 3 3 4 5 6 6 6 6 6 6 6 6 5 5 6 6 6 6 5 4 4 5 5 5 6 6 6 6 6 7 7 6 6 6 7 7 7 7 8 9 11 12 13 13 14 14 14 14 15 15 16 16 16 16 15 15 15 14 14 14 13 13 13 13 13 13 13 13 13 12 12 11 11 10 10 10 10 11 11
1 1 2 2 3 2 2 3 3 4 5 6 6 6 7 7 6 6 5 4 3 3 4 4 4 4 5 5 6 6 6 6 6 6 7 7 7 7 7 7 7 7 8 8 8 8 9 11 12 13 13 13 14 14 14 15 16 16 16 16 16 16 15 15 15 14 14 13 13 13 13 13 13 13 13 13 12 12 11 11 11 10 10 10 10 10
2 2 2 2 2 2 2 3 5 5 6 6 7 7 7 7 7 5 3 1 1 1 2 3 3 4 5 6 6 7 7 7 7 7 7 7 7 7 7 8 8 8 9 9 9 9 10 11 13 13 13 13 13 14 14 15 16 17 17 16 16 16 15 15 15 14 14 13 13 13 13 13 13 13 13 13 13 12 12 11 11 10 10 10 10 10
2 2 2 2 2 3 3 4 5 6 6 7 7 8 7 6 5 4 2 1 0 1 2 3 4 4 5 6 7 7 7 7 7 7 7 7 7 7 7 8 9 10 10 10 9 9 10 11 12 13 13 13 13 13 14 15 16 17 17 17 16 16 16 15 15 14 14 13 13 13 13 13 13 13 13 13 13 13 12 12 12 11 11 11 10 10
3 2 2 2 1 1 1 2 3 4 4 5 5 5 5 4 3 2 2 2 2 2 3 3 4 5 6 6 7 7 8 8 7 7 7 7 7 7 8 9 10 11 10 10 9 9 9 10 11 12 13 13 13 13 14 15 16 17 17 17 17 16 16 15 15 14 14 13 13 13 13 14 14 14 14 14 14 14 13 13 12 12 12 12 11 11
5 5 4 4 4 3 3 2 1 1 1 1 1 1 1 0 0 1 1 2 3 4 4 5 5 6 6 6 6 7 7 7 7 7 7 7 8 9 10 11 12 11 10 9 8 8 9 9 10 11 12 13 13 14 14 16 17 17 17 17 17 16 16 16 15 14 14 14 14 14 14 14 14 14 14 14 14 14 14 14 14 13 13 12 12 12
5 6 7 7 7 7 6 5 6 7 7 7 6 5 4 3 2 2 2 2 3 4 5 5 5 6 6 5 5 5 5 6 7 7 8 8 9 11 12 12 11 10 8 7 6 6 7 9 10 11 11 12 13 14 15 16 17 18 18 17 17 17 16 16 15 15 14 14 14 14 14 14 14 15 15 15 15 15 15 15 15 14 14 13 13 13
5 6 8 7 7 8 8 8 9 9 9 8 7 6 5 4 3 3 3 3 4 5 6 7 6 4 4 4 3 4 5 6 8 9 10 10 10 11 11 10 9 7 6 5 5 6 7 8 10 11 11 12 13 14 15 16 17 18 18 17 17 17 17 16 16 15 15 14 14 14 14 15 15 15 15 15 15 15 15 15 15 15 15 14 14 14
6 6 7 7 6 7 8 8 9 9 8 8 7 7 6 6 5 5 5 6 6 6 6 7 5 4 2 2 3 4 6 8 10 12 13 12 11 10 9 8 6 5 4 4 5 6 7 9 10 11 11 12 13 14 15 16 17 17 17 17 17 17 17 16 16 16 15 15 15 15 15 15 15 15 15 15 15 15 15 15 15 16 15 15 15 15
7 8 8 7 6 6 7 6 7 7 6 6 6 6 7 7 7 6 6 6 6 6 6 5 4 3 3 2 3 5 8 11 12 14 14 13 11 8 7 6 5 4 4 5 6 7 8 9 10 11 12 13 14 15 16 17 17 17 16 16 17 17 17 17 16 16 16 16 16 16 16 16 16 16 16 15 15 15 15 15 15 15 15 16 15 15
9 9 8 7 6 6 6 6 5 5 4 5 6 6 6 6 6 6 6 6 6 6 5 4 3 3 4 4 5 8 11 13 14 14 14 13 10 7 6 5 4 5 5 6 7 8 9 10 10 11 12 13 15 16 17 18 17 17 16 16 16 16 16 16 16 16 16 16 16 16 16 17 17 17 17 16 16 15 15 15 15 15 15 15 15 15
9 8 8 7 6 6 6 6 5 5 5 6 6 6 6 6 6 6 6 6 6 6 6 4 3 3 4 6 8 11 12 13 13 14 14 13 10 6 5 4 4 5 6 7 8 9 10 10 11 12 13 15 16 17 18 18 18 17 16 15 14 15 15 16 16 16 16 16 16 17 17 17 17 18 18 17 16 16 15 15 15 15 15 15 15 15
9 8 7 6 6 6 6 6 5 5 6 6 6 6 6 7 7 7 7 7 7 7 7 6 5 5 6 9 12 13 12 13 12 12 12 11 8 6 5 4 5 6 8 9 10 11 12 12 13 14 15 17 17 18 18 18 18 17 15 13 12 13 13 15 15 16 16 16 17 17 17 17 18 18 18 18 17 17 16 16 16 16 16 15 15 15
8 7 6 5 5 6 6 5 5 5 5 6 6 6 7 7 8 8 8 8 8 8 8 8 8 8 10 12 12 12 12 11 10 8 7 7 6 5 4 5 7 9 11 12 13 14 15 15 16 17 18 18 18 18 18 18 17 15 13 11 10 11 12 14 15 16 16 17 17 17 17 18 18 18 18 18 18 17 17 17 16 16 16 16 15 15
6 6 5 5 5 5 5 5 5 5 5 6 6 7 7 8 8 8 8 8 8 8 9 9 9 10 11 10 10 10 10 9 7 6 5 5 5 4 5 7 9 11 14 15 17 17 17 18 18 18 19 19 18 18 17 16 14 12 9 8 8 10 12 14 15 16 17 17 17 17 18 18 18 18 17 18 18 17 17 17 17 17 17 16 16 15
4 4 4 4 4 4 4 5 5 5 6 6 6 6 7 8 8 8 8 8 8 8 9 9 10 10 10 8 8 8 7 7 6 6 5 5 5 6 7 10 12 14 16 18 19 20 20 20 20 20 19 18 17 16 15 13 10 8 6 6 8 10 12 14 16 17 17 17 18 18 18 18 18 18 17 17 17 17 17 17 18 18 17 17 16 16
3 3 3 3 3 4 4 4 5 6 6 6 6 6 7 7 8 8 8 8 8 8 9 10 10 9 7 5 4 5 5 6 6 6 5 5 6 8 10 13 15 17 19 20 21 22 23 22 21 20 19 17 15 14 12 9 7 5 5 6 8 10 13 16 17 18 18 18 18 18 18 18 18 18 18 17 17 17 17 17 17 17 17 17 17 16
2 2 2 2 3 3 3 4 5 6 6 6 6 7 7 7 8 7 7 7 7 8 9 9 8 7 6 4 4 5 6 7 8 7 6 5 6 9 11 14 17 19 21 23 23 24 25 25 23 21 18 15 12 10 9 7 6 6 6 7 9 12 16 19 20 20 20 19 19 19 19 19 19 19 19 18 18 18 17 17 17 17 17 17 17 17
1 1 2 2 2 2 2 3 4 5 5 6 7 7 8 7 7 6 6 6 8 9 9 9 8 7 6 5 5 6 8 9 9 8 6 5 7 9 11 15 17 20 22 24 25 26 26 25 23 20 15 11 9 8 8 8 8 8 7 8 10 14 18 21 22 22 20 19 19 19 19 19 20 20 20 19 19 18 18 18 17 17 17 17 18 18
1 1 1 1 1 1 0 2 3 4 5 6 7 8 8 8 7 6 6 8 9 10 10 9 7 6 6 6 6 6 8 8 8 7 7 7 9 10 13 16 19 21 22 24 26 26 24 22 20 17 12 9 7 7 8 9 9 9 9 9 13 17 21 23 23 21 20 19 18 19 19 20 21 21 21 21 20 19 18 18 18 18 17 18 18 19
3 3 3 3 3 3 3 2 3 4 4 5 7 8 9 8 8 7 8 9 9 9 9 8 6 5 5 6 7 8 8 6 6 6 7 10 11 11 14 17 19 20 21 23 25 25 21 18 15 13 9 7 7 8 9 9 10 10 10 12 16 20 23 23 22 20 19 18 18 19 20 21 22 23 23 22 21 20 19 18 18 18 18 18 19 19
4 4 4 4 4 4 4 4 3 3 4 5 7 8 8 8 8 8 8 8 8 8 8 8 6 5 5 7 9 8 6 4 4 7 10 12 13 13 17 18 18 19 20 21 21 20 15 13 12 10 7 6 7 9 10 9 10 11 14 17 21 23 22 20 18 17 18 18 19 19 20 22 23 24 24 23 21 20 19 18 18 18 18 18 19 19
4 4 4 4 4 4 4 4 4 4 4 6 7 7 7 7 7 7 7 8 8 8 8 7 7 7 7 7 7 5 2 2 5 10 13 14 14 15 18 18 17 17 18 17 14 11 10 11 10 7 5 5 7 9 11 13 15 18 20 22 22 20 18 16 16 16 17 18 20 21 22 23 24 24 24 23 21 20 19 18 18 18 18 19 19 19
4 4 3 3 4 4 4 5 5 5 6 6 7 7 7 7 7 7 8 8 8 8 8 7 7 8 7 5 3 2 2 3 8 13 15 15 14 14 17 16 15 15 16 13 9 6 6 9 10 8 8 10 13 16 19 20 22 22 22 20 18 16 15 15 16 17 19 20 21 23 24 24 24 23 22 21 20 20 19 18 17 17 18 18 19 20
4 4 3 3 3 4 4 5 5 6 6 7 7 6 7 7 8 8 9 9 9 9 8 8 8 8 8 5 3 3 4 5 10 14 15 15 14 14 15 14 14 14 14 12 8 5 4 6 10 14 17 19 21 23 23 22 21 19 18 17 16 16 16 17 18 20 21 23 23 24 23 23 21 20 19 19 19 19 19 18 17 16 17 18 19 20
4 4 4 3 3 4 4 5 6 6 7 7 6 6 7 7 8 9 10 10 10 9 9 9 9 9 10 9 7 7 8 10 12 13 15 15 14 14 14 14 13 13 14 12 10 9 8 10 13 17 20 21 20 20 20 20 18 17 16 16 17 18 19 20 22 23 24 24 24 23 21 20 19 18 17 17 18 18 18 17 16 16 16 17 19 21
5 5 5 5 4 4 4 5 6 6 7 7 7 6 6 7 8 9 10 10 10 10 10 9 10 10 11 11 10 10 12 14 14 14 15 15 15 14 14 14 13 13 13 12 12 12 12 13 14 16 17 18 18 17 17 17 16 16 16 17 19 21 23 24 24 24 24 23 22 21 20 19 18 17 17 17 17 17 17 17 16 16 16 17 18 20
6 6 6 6 5 4 4 5 6 6 7 7 7 7 7 7 8 8 9 10 10 10 10 10 10 10 11 11 11 12 14 16 15 15 15 15 15 15 14 13 12 13 13 12 12 12 12 13 14 14 15 17 17 16 15 15 15 16 18 19 22 23 24 24 24 24 24 23 22 22 21 19 18 18 17 17 17 17 17 17 17 17 17 17 17 18
6 6 7 7 6 5 5 6 6 7 7 8 8 9 9 8 8 8 9 10 10 11 11 10 10 10 11 12 13 14 16 17 17 16 15 15 15 15 13 12 12 12 12 12 11 11 12 13 14 14 15 15 16 16 16 16 17 18 20 22 23 24 24 23 23 22 23 23 23 23 22 20 19 18 17 17 17 17 18 18 18 18 18 17 17 17
7 7 7 7 7 7 7 7 8 9 9 9 10 11 11 10 10 10 10 11 12 12 12 12 11 11 11 12 14 15 17 17 17 16 16 15 14 14 13 13 13 12 12 12 12 12 12 13 14 15 14 14 14 15 17 18 19 20 21 22 23 23 23 22 21 21 22 23 23 23 22 20 19 18 18 18 18 18 18 18 17 17 17 17 17 16
7 7 7 7 8 8 9 9 10 10 10 10 11 12 12 11 11 11 12 13 13 13 13 13 13 12 12 13 14 15 16 17 17 16 15 14 13 13 13 13 13 13 13 13 13 13 13 13 13 13 13 14 15 16 17 18 19 20 21 22 22 21 21 20 20 21 22 23 23 23 21 20 19 20 20 20 20 20 19 18 16 16 16 16 17 17
7 7 7 7 8 9 9 10 11 11 11 12 12 12 13 12 12 13 13 14 14 14 13 13 13 13 13 14 14 15 16 16 16 15 14 12 11 10 11 13 13 13 13 13 13 14 13 13 13 13 13 15 17 18 18 18 18 20 21 22 21 20 19 19 20 22 22 22 22 22 21 21 21 21 22 22 21 21 21 19 18 17 17 18 19 19
7 7 7 8 8 9 10 10 11 12 12 12 13 13 13 13 13 13 13 13 13 13 13 13 14 14 15 15 15 15 15 15 14 12 11 9 8 8 9 11 12 13 13 13 14 14 14 15 15 16 16 16 17 18 18 18 18 18 19 19 19 19 19 20 21 22 22 21 21 21 22 22 22 23 23 22 21 21 20 20 19 19 18 19 21 22
7 7 8 9 9 10 10 11 11 12 13 13 13 13 12 12 12 13 14 13 13 12 12 13 15 16 16 16 16 15 14 13 11 10 9 8 8 8 9 10 11 12 13 14 15 15 15 15 16 17 17 17 18 19 19 18 18 17 17 17 18 20 21 21 20 20 20 20 21 22 23 24 24 24 23 22 20 19 18 18 19 19 19 19 20 21
8 8 9 10 10 11 11 12 12 12 12 12 11 10 10 11 12 13 14 14 14 14 14 14 15 16 17 16 16 15 13 12 10 9 8 8 7 8 9 10 11 13 14 16 17 16 16 16 16 16 17 17 18 18 18 18 18 17 17 17 18 20 20 18 17 18 19 21 23 23 24 25 25 24 23 22 20 18 17 17 18 19 19 19 20 20
8 9 9 10 11 11 12 12 12 11 11 10 9 9 9 11 12 13 14 14 14 14 14 14 14 15 16 16 16 16 14 12 10 9 8 8 8 8 9 11 12 14 16 18 19 18 18 17 16 16 17 17 17 18 19 19 19 18 17 17 17 18 16 17 18 19 21 23 24 24 24 24 24 24 23 22 21 19 18 18 18 18 18 19 20 21
8 8 9 10 11 11 11 12 12 12 11 11 11 11 11 12 13 13 14 14 14 14 14 14 15 15 15 15 16 16 14 12 10 9 8 8 8 9 11 13 15 16 17 19 19 19 18 17 16 16 16 17 17 18 18 19 19 18 18 17 17 16 16 17 19 21 23 24 24 24 23 23 24 24 24 24 23 21 20 19 19 19 19 20 20 21
8 8 9 11 11 11 11 11 12 13 13 14 13 13 13 14 14 14 14 15 15 15 14 14 14 14 14 14 15 15 14 12 10 9 8 8 9 10 13 15 17 18 18 18 19 19 18 17 17 17 17 17 17 17 18 18 19 19 18 17 17 17 18 19 20 21 23 24 24 24 23 23 24 25 25 25 24 23 22 22 21 21 21 21 21 22
9 9 11 12 12 11 11 11 12 12 13 13 13 14 14 14 14 15 15 15 15 15 14 14 13 13 14 15 15 15 14 13 12 11 11 11 13 15 16 18 18 17 16 16 16 17 18 18 19 18 18 17 17 17 17 17 18 18 18 18 18 18 19 19 19 21 22 23 24 25 24 24 24 24 23 22 23 23 24 23 23 22 22 22 22 23
9 10 11 12 11 11 11 11 11 11 12 12 12 12 13 13 14 14 14 14 14 15 15 14 14 14 14 14 14 13 13 14 14 15 16 17 19 19 19 17 16 14 15 16 17 17 18 18 18 18 18 17 17 17 17 17 17 17 18 18 18 18 18 18 19 20 22 23 24 25 25 24 23 22 20 21 22 23 23 23 23 22 22 22 23 24
9 10 11 11 11 11 11 11 11 11 11 11 12 12 13 13 13 13 13 13 14 14 13 14 13 13 13 13 12 13 14 16 17 19 20 20 20 20 19 18 17 17 17 18 18 18 18 17 17 17 17 18 17 17 17 17 17 17 17 17 17 17 18 18 20 21 23 25 25 26 25 23 21 20 20 20 20 20 21 21 22 22 22 23 23 24
8 10 10 10 10 10 10 10 10 10 11 11 12 12 13 12 12 12 12 12 13 13 13 13 12 12 12 13 14 16 17 18 19 19 19 19 19 19 19 19 19 20 20 19 18 17 16 16 15 15 16 17 18 18 18 18 18 18 18 17 17 17 18 19 21 23 24 25 26 26 24 23 21 20 20 19 19 20 21 22 23 23 23 23 24 24
9 10 11 10 10 10 9 10 10 10 10 11 11 12 12 12 12 12 12 12 12 12 12 13 13 14 15 17 18 18 18 18 17 17 17 17 17 18 18 19 20 20 20 18 16 15 14 14 14 13 13 14 16 18 19 19 19 19 18 17 17 17 18 20 21 22 24 25 25 24 23 21 19 18 18 18 19 21 22 24 25 25 24 24 23 24
11 11 11 11 10 9 9 9 9 9 10 11 11 12 12 12 12 12 12 12 13 13 14 15 16 16 16 17 17 17 16 16 16 16 17 16 16 17 17 18 18 18 17 16 15 14 13 13 12 12 12 11 12 14 16 18 19 19 18 18 18 18 19 20 22 23 24 23 22 21 19 18 17 18 18 19 20 21 22 24 25 25 25 24 23 24
Wind_Direction
241 234 224 215 216 234 254 286 321 340 344 342 338 331 320 306 295 289 288 291 293 295 296 300 305 310 312 313 319 331 343 349 350 350 348 344 341 341 341 345 352 355 355 354 355 358 359 1 2 4 6 6 5 4 3 1 359 357 355 352 350 348 346 344 342 340 339 338 337 337 338 339 341 343 346 351 356 360 5 9 12 11 6 1 360 0
232 225 216 212 217 229 242 256 291 324 333 335 330 323 312 299 287 280 278 279 280 281 282 286 293 300 301 301 308 322 336 344 347 348 349 347 346 346 346 349 351 350 347 345 347 350 352 354 357 359 0 1 1 360 359 358 357 355 354 352 350 348 346 344 342 341 340 338 337 337 337 338 339 341 343 347 351 356 1 5 8 7 4 1 359 358
219 214 210 209 212 220 232 244 275 307 322 324 323 318 310 298 285 274 269 268 268 267 268 271 278 286 290 291 299 312 327 335 338 341 343 345 346 346 347 349 349 345 342 339 340 342 345 348 351 354 356 356 356 356 355 354 354 353 351 350 349 347 345 343 342 341 340 340 339 338 338 338 339 340 341 344 347 351 356 0 3 3 2 1 0 359
210 206 204 203 205 207 210 235 273 301 313 315 316 316 314 303 290 276 267 263 261 259 258 260 265 272 279 285 292 304 317 323 327 330 334 337 338 340 341 343 343 341 337 334 333 335 337 341 345 349 351 352 352 352 352 352 351 351 350 349 348 346 345 343 342 341 341 340 340 339 339 339 339 340 340 342 345 347 351 355 359 0 1 1 1 1
196 194 190 190 190 193 206 255 288 301 306 306 309 312 315 311 302 286 271 264 259 255 252 252 255 262 270 277 287 297 307 311 315 319 323 325 326 327 330 333 335 336 333 329 326 326 329 333 338 342 345 347 348 349 350 350 350 349 349 348 347 346 344 343 342 340 340 340 340 339 339 339 339 340 340 341 343 345 347 350 354 358 359 359 359 359
150 156 159 171 185 209 242 266 282 290 294 295 299 305 311 311 307 297 282 269 260 254 249 247 248 254 262 272 282 291 298 303 306 309 312 315 316 316 318 322 326 328 329 325 321 318 319 322 329 334 339 342 344 346 347 347 348 348 348 347 347 346 344 343 341 340 339 339 339 339 338 339 339 339 340 341 342 343 344 346 350 354 356 357 357 357
107 120 133 165 215 239 249 259 269 277 282 284 290 296 302 304 306 303 295 282 268 257 249 244 243 248 257 267 279 289 295 300 303 304 306 306 307 307 308 311 316 319 321 320 316 311 309 313 320 327 332 336 339 342 344 346 347 347 347 347 347 346 345 343 341 340 339 338 338 338 338 338 338 339 339 340 340 342 343 344 346 348 352 354 355 354
128 181 201 212 224 232 238 246 257 267 272 279 285 291 294 297 302 305 304 294 277 260 247 240 239 244 254 266 277 287 294 300 302 302 301 301 300 301 301 304 307 310 313 314 311 305 302 305 313 320 327 332 335 338 340 343 344 345 346 346 346 346 345 344 342 341 339 338 338 337 337 337 338 338 339 339 339 340 341 343 344 345 346 349 351 352
220 216 212 209 203 204 221 243 255 262 269 274 278 282 286 292 299 303 305 300 281 257 242 238 239 245 255 267 277 284 291 295 297 297 296 296 296 298 301 303 305 306 307 308 306 301 297 300 307 315 322 327 331 333 336 339 341 343 344 345 345 345 345 344 343 341 340 338 338 337 337 337 337 338 338 338 338 339 339 340 341 342 343 344 346 348
192 183 182 195 210 232 255 264 263 261 262 265 269 274 279 287 294 299 302 307 278 247 243 248 251 255 260 267 273 279 283 286 287 289 289 291 294 297 301 304 306 305 304 303 302 299 294 296 302 310 317 323 327 330 333 336 338 340 341 342 343 344 344 343 343 341 340 339 338 337 337 336 337 337 337 337 337 337 337 337 338 339 339 341 342 343
156 180 208 237 263 273 270 265 261 257 255 259 264 269 275 281 287 295 303 321 335 288 278 277 276 276 274 272 273 275 276 277 278 279 279 281 285 291 296 301 304 303 301 299 297 295 293 294 299 306 313 319 324 327 330 333 335 336 338 340 341 342 342 342 342 341 340 339 338 337 337 336 336 336 336 335 335 335 335 335 335 336 336 337 338 338
113 149 180 191 201 237 255 252 251 250 249 254 258 259 262 265 272 286 312 329 329 323 314 305 298 294 290 286 282 280 277 275 273 271 270 269 273 282 290 297 300 300 296 293 291 290 291 293 298 305 311 317 321 324 327 329 332 333 335 337 338 339 340 341 341 340 340 339 338 337 337 336 335 335 334 334 334 333 333 332 332 332 332 333 334 334
105 116 117 111 104 95 88 98 130 147 113 91 71 57 46 111 220 314 330 333 331 331 330 325 317 309 303 297 292 288 286 283 280 277 273 273 278 287 294 298 300 298 292 286 283 286 291 296 300 305 310 314 318 322 324 326 329 331 333 334 336 337 338 339 340 339 339 338 337 336 335 334 334 333 332 332 332 331 331 330 330 329 329 329 330 331
89 97 97 90 84 80 79 81 79 74 69 69 68 68 69 67 54 24 360 350 344 341 340 340 330 317 312 310 307 303 301 299 296 291 285 286 293 299 302 304 304 301 294 285 282 287 294 299 303 306 310 313 316 319 322 324 327 329 330 331 332 333 335 337 338 338 338 337 336 334 333 333 332 331 330 330 329 329 329 328 327 327 326 326 326 327
78 85 86 82 77 73 74 76 74 72 70 66 65 65 64 57 42 25 14 11 360 351 348 349 341 325 315 320 327 325 317 312 308 304 299 300 306 310 310 312 313 310 303 296 295 298 302 305 307 309 311 313 316 319 321 323 325 326 327 327 327 329 331 334 336 337 336 336 334 333 332 331 330 329 328 327 326 326 326 326 326 326 325 324 323 324
88 89 86 86 80 74 73 73 70 68 67 62 57 52 49 43 33 22 16 14 4 356 357 355 350 337 316 322 335 335 326 318 314 310 308 312 318 323 319 321 324 324 320 318 317 315 312 312 312 313 314 315 317 318 319 320 321 321 320 320 320 323 326 330 332 334 335 335 334 333 331 330 329 328 327 325 324 324 324 324 324 324 324 323 323 322
92 93 93 93 85 75 71 68 64 61 58 52 44 36 31 27 21 16 13 10 8 8 9 3 353 335 317 311 329 331 326 321 317 314 312 318 326 330 326 328 333 338 340 337 332 327 322 318 317 316 316 316 316 316 316 315 315 314 312 311 312 315 320 325 329 331 333 334 333 333 332 331 330 328 327 325 324 322 322 322 322 322 322 321 321 321
94 97 99 96 87 74 64 56 52 47 39 33 29 25 20 16 12 9 8 7 12 16 13 5 349 321 308 305 320 327 324 322 319 317 314 319 327 333 329 327 330 336 341 341 337 330 324 320 318 318 317 317 316 314 312 309 307 305 303 303 305 309 314 321 326 329 332 332 332 331 331 330 330 329 327 325 323 322 320 319 319 319 319 319 319 319
94 98 98 95 85 71 58 48 39 29 19 14 12 10 11 11 9 7 7 5 7 8 6 357 339 313 299 299 313 321 323 321 320 317 315 319 325 330 323 318 315 320 327 332 330 325 320 317 317 318 320 319 317 314 309 306 303 300 298 298 300 304 312 319 325 328 330 330 330 330 329 328 328 327 327 325 324 322 320 318 317 316 316 315 316 316
90 88 86 85 78 67 56 43 32 22 15 8 3 1 5 7 8 8 7 4 1 356 351 348 339 321 313 315 320 323 322 321 320 319 316 318 320 319 311 301 299 305 311 316 317 316 315 316 318 321 323 322 320 315 310 305 302 299 296 295 297 304 313 321 326 328 329 328 328 328 327 327 326 325 325 324 323 322 320 318 316 314 314 313 313 313
89 81 73 66 64 63 55 40 27 17 13 7 3 3 6 7 8 7 4 359 354 349 343 342 337 329 325 325 324 323 323 323 324 324 317 311 307 304 301 296 299 303 306 308 310 313 315 317 320 324 326 325 322 317 312 307 303 300 298 297 300 309 319 325 328 328 327 326 325 325 325 325 325 324 323 323 322 321 320 318 316 315 313 312 312 311
89 84 70 58 55 55 49 35 20 11 7 3 3 7 9 9 8 5 359 353 349 345 340 335 331 328 327 324 321 321 323 324 328 329 316 299 288 290 305 303 306 308 309 309 310 313 316 318 322 326 328 327 323 318 313 308 305 303 301 301 308 317 325 328 328 326 324 322 322 322 323 324 324 324 323 322 321 320 319 318 317 315 313 312 311 310
74 76 69 60 55 50 43 31 16 4 357 355 359 3 4 4 3 359 353 348 343 339 333 327 325 325 324 321 320 323 326 328 331 328 316 293 287 298 309 308 310 312 312 313 314 316 317 319 323 327 330 329 325 319 313 308 305 303 301 303 313 322 327 329 327 324 321 319 318 319 320 323 324 324 323 322 320 319 318 317 316 315 314 312 311 309
73 72 70 65 59 53 44 32 15 360 351 348 351 355 355 356 355 352 346 340 335 331 327 324 324 327 327 325 328 332 334 332 332 330 321 292 286 296 306 311 316 319 317 316 317 318 318 319 323 328 331 329 324 317 310 303 297 291 290 299 312 323 328 328 327 324 320 317 315 315 317 321 323 324 323 322 320 318 317 315 314 313 312 312 310 308
79 80 75 69 64 59 51 40 22 5 352 345 344 348 350 352 351 348 341 333 330 331 332 335 338 339 334 330 331 332 329 325 322 322 321 300 290 296 308 317 323 325 323 319 318 318 320 321 324 328 331 328 320 311 299 287 276 271 278 293 312 322 326 327 325 322 319 315 312 312 314 318 321 323 322 321 319 317 315 314 313 311 311 310 308 306
92 82 76 76 77 72 65 53 35 19 1 345 340 342 347 350 350 345 337 337 341 346 351 355 353 345 339 332 326 325 323 321 317 315 318 314 311 312 319 325 328 328 326 321 319 319 321 323 326 330 332 324 311 296 281 270 264 265 273 291 309 319 322 323 321 319 315 311 309 309 311 315 318 320 320 319 317 315 314 312 311 310 309 307 305 304
220 208 208 213 222 240 14 38 37 27 8 344 337 338 342 346 348 349 351 354 355 358 5 8 359 342 337 333 325 318 317 316 314 313 318 326 329 329 328 329 330 330 328 323 321 321 323 325 329 333 331 316 294 277 264 260 258 261 270 287 304 313 317 317 316 313 309 306 305 306 309 313 316 317 317 316 314 312 311 310 310 309 307 305 303 302
259 257 261 266 276 288 306 334 12 23 10 346 337 337 341 346 356 7 11 4 1 3 9 11 2 341 331 324 318 312 307 308 316 323 327 335 338 336 332 330 331 332 332 326 322 322 324 326 331 334 327 302 274 259 255 257 259 261 269 286 301 309 312 313 311 307 303 301 301 303 307 310 313 314 313 312 309 308 307 308 308 308 306 304 302 301
284 284 286 291 297 304 315 327 352 14 11 350 341 341 344 352 6 15 11 1 359 4 8 7 3 350 331 319 314 308 300 308 331 336 334 340 340 334 331 330 332 336 337 331 327 325 325 326 331 333 317 285 261 252 250 260 265 270 280 292 301 307 311 310 307 301 297 296 298 301 304 307 309 310 309 307 305 303 303 305 306 306 305 302 300 298
296 298 300 305 309 316 323 334 345 352 353 346 343 345 350 359 8 12 7 360 359 1 3 360 356 352 343 329 318 309 304 353 345 337 336 341 340 335 331 331 334 338 341 339 334 327 321 319 323 325 308 280 266 262 265 277 285 291 297 303 308 313 314 310 303 297 294 294 296 299 302 304 306 307 305 303 301 299 299 301 303 305 303 301 299 298
303 307 313 318 321 324 326 333 339 340 336 334 337 344 354 2 6 7 3 360 358 358 356 353 350 348 348 341 329 309 320 2 341 332 334 339 338 333 332 331 333 336 341 344 341 325 317 315 316 313 306 298 295 295 296 300 305 309 313 317 321 322 317 310 302 298 296 297 298 300 303 304 305 304 302 300 298 296 296 298 300 302 302 302 301 301
302 305 311 317 323 325 326 327 329 329 326 327 333 343 355 360 1 360 358 355 354 353 351 348 343 341 341 333 308 281 293 316 323 326 330 335 335 331 330 329 329 331 336 338 331 315 304 305 307 308 308 308 308 310 313 317 321 326 328 327 324 318 313 309 305 302 302 303 304 305 306 307 306 304 301 298 296 294 294 295 298 300 302 304 304 304
298 297 298 300 307 315 319 323 322 321 323 327 335 346 354 355 354 352 351 349 349 347 346 342 339 335 331 323 308 291 289 299 312 322 328 331 332 330 327 325 324 326 329 328 321 307 291 290 299 305 309 311 314 317 321 325 328 330 329 323 317 313 312 311 310 310 310 312 312 313 312 311 309 305 302 299 296 295 294 294 295 299 303 305 305 305
300 302 299 298 298 301 309 313 316 320 325 330 337 345 350 349 346 345 344 343 342 341 339 337 334 330 326 320 311 301 298 305 315 324 327 329 328 325 322 319 319 321 323 321 318 311 300 294 297 304 309 311 312 315 318 322 325 324 321 316 313 313 314 316 318 318 320 321 321 321 319 317 313 309 306 303 300 298 296 295 295 297 302 303 303 304
305 307 309 309 308 309 309 310 312 317 322 326 332 337 340 341 339 337 335 334 333 331 329 327 324 322 320 315 308 303 302 309 316 322 324 325 323 320 316 313 313 316 317 314 314 313 307 302 302 306 308 310 310 310 313 317 318 316 314 313 314 315 318 321 323 324 325 326 325 324 323 321 317 314 312 309 306 304 301 299 297 296 296 297 299 300
300 306 312 318 322 322 318 313 312 311 312 313 318 323 327 329 328 326 324 323 321 320 317 315 312 310 309 308 305 302 303 308 312 314 315 315 314 312 308 304 305 308 308 307 307 307 305 304 305 306 306 306 307 309 311 312 313 312 312 314 316 318 321 324 325 326 325 325 324 324 324 323 320 318 316 314 312 308 305 302 299 296 294 294 294 295
288 296 306 316 321 320 316 312 309 306 304 303 306 311 316 317 316 315 314 313 313 311 309 306 302 300 300 301 301 300 301 303 304 305 306 305 304 303 301 297 298 299 299 298 298 300 301 302 304 305 303 300 301 305 309 311 312 312 313 314 316 318 320 323 324 323 322 321 321 322 323 323 322 320 318 317 314 311 307 304 301 299 297 296 295 294
278 288 299 309 314 314 312 309 307 304 302 299 301 304 307 308 308 309 310 310 311 310 308 305 301 298 297 298 298 297 298 299 300 302 303 301 299 297 297 297 297 297 296 294 293 294 296 298 301 303 302 299 297 299 304 308 310 311 312 313 315 316 317 319 319 319 318 319 320 321 322 322 320 319 317 317 316 314 311 310 307 305 304 302 300 298
269 280 292 301 307 309 310 309 307 305 303 301 300 301 303 305 307 309 311 313 313 313 311 309 306 304 302 300 298 296 295 296 299 301 303 302 299 297 298 300 301 303 303 302 298 294 291 289 291 294 297 298 299 300 302 304 306 308 311 313 313 313 313 315 315 316 317 318 318 319 319 319 318 316 315 316 316 316 316 316 315 314 313 312 309 305
258 271 283 292 298 303 307 309 308 306 304 301 299 299 300 303 307 310 313 315 316 315 314 313 310 308 306 303 300 297 296 297 300 302 302 300 299 299 301 303 305 308 309 307 302 296 290 285 284 285 287 290 293 296 298 299 302 305 309 311 311 310 310 311 312 314 316 317 316 314 314 315 315 315 316 317 318 318 318 317 316 316 316 315 315 313
252 264 276 284 288 292 296 300 302 302 300 297 293 293 296 301 306 310 313 315 315 314 313 313 312 310 307 304 302 301 301 303 305 306 302 298 294 295 299 301 305 308 308 307 304 298 290 285 283 282 283 285 288 290 291 293 296 300 302 302 302 303 305 306 309 312 314 313 313 313 313 314 315 317 319 320 319 318 317 315 313 313 313 313 313 314
252 263 273 279 283 286 291 294 297 297 296 293 290 291 296 304 308 310 311 312 312 312 312 313 314 313 311 308 307 307 310 312 314 311 305 298 293 292 294 298 301 304 306 307 304 298 290 285 282 280 281 284 286 288 289 291 293 295 296 296 298 301 303 303 306 309 309 309 311 314 315 316 318 320 321 321 319 317 314 311 309 309 310 310 310 310
254 264 271 277 281 285 288 291 294 297 300 301 302 305 309 311 310 309 309 309 309 311 313 314 314 313 310 308 308 310 313 316 317 314 309 304 300 297 296 297 298 300 302 303 302 298 292 286 281 279 280 281 283 284 287 290 292 293 293 295 298 300 301 302 305 306 306 307 311 315 318 320 321 321 320 318 317 315 312 308 306 306 307 308 309 309
254 263 271 276 279 282 285 287 290 293 298 303 307 309 310 310 308 307 307 308 308 309 310 311 312 310 306 304 305 308 311 312 311 309 306 303 301 298 296 295 296 297 298 300 299 297 294 288 283 280 281 281 281 281 284 287 290 292 293 295 294 293 292 296 301 304 304 306 310 315 319 321 320 319 317 316 315 314 311 309 308 307 307 307 308 308
251 258 264 269 271 274 278 283 286 287 288 291 295 298 299 300 301 303 304 305 306 306 307 308 309 307 302 301 303 305 307 307 306 304 301 297 295 294 294 295 296 296 297 298 299 298 295 288 285 286 286 284 281 279 280 284 287 290 292 294 293 291 290 293 297 299 300 303 307 313 318 320 318 315 313 313 313 313 312 310 309 307 307 306 307 307
246 251 255 259 262 267 273 281 284 284 284 285 287 289 292 294 295 297 299 300 302 303 303 304 303 299 295 296 299 302 304 305 305 304 300 298 296 296 297 298 300 301 302 302 302 300 297 290 287 287 287 285 282 279 278 280 284 287 290 292 294 294 294 296 297 298 299 301 304 310 315 317 315 310 307 307 307 307 309 309 308 306 305 305 305 305
233 241 247 253 258 265 272 278 280 281 281 283 285 288 290 292 294 295 297 297 298 300 301 301 297 291 288 290 294 299 304 307 306 305 304 304 304 305 307 311 313 314 313 311 308 305 301 296 291 287 282 280 280 280 279 279 280 282 285 290 292 294 295 296 297 299 301 302 304 308 313 313 310 306 303 302 302 302 304 305 304 303 301 301 301 301
231 240 246 253 259 266 272 276 277 278 281 284 287 289 291 293 295 297 297 297 298 299 299 297 292 287 286 289 295 302 307 308 307 306 306 308 310 313 317 322 324 323 318 314 311 306 301 297 292 285 278 273 272 275 279 280 280 280 282 286 288 290 291 293 297 301 304 305 307 309 310 308 304 301 301 300 300 299 300 300 299 297 297 297 297 298
239 244 249 255 261 267 271 274 276 279 284 288 291 293 295 296 298 299 299 299 300 299 295 291 290 292 296 300 303 306 307 307 305 305 306 308 311 315 319 323 324 323 321 317 313 308 302 296 289 282 275 268 265 266 272 276 279 280 281 283 285 286 288 290 295 300 304 305 307 308 307 305 302 301 300 298 297 298 299 298 297 296 296 297 297 296
246 248 251 256 261 265 269 274 279 284 289 294 298 301 303 303 302 301 301 302 301 297 292 291 294 299 302 302 303 304 305 304 304 304 305 307 311 315 318 322 324 324 324 322 318 314 309 303 296 287 275 269 266 265 266 270 276 280 282 282 283 284 286 289 293 298 301 302 303 303 303 301 302 302 301 298 297 297 298 298 297 297 297 298 298 297
244 247 250 253 257 262 268 275 283 290 296 301 303 304 303 302 302 302 302 301 299 296 294 294 295 297 298 299 300 301 301 301 301 301 303 307 312 315 318 321 324 326 326 324 322 320 317 313 307 299 291 280 271 268 268 270 274 277 279 281 283 285 286 288 292 295 298 300 301 301 301 301 301 301 300 297 296 296 297 297 297 297 298 300 300 298